EW3359 Weather Reports


Display with metric or nautical units.
time (UTC)temp
F
wind
direction
speed
MPH
gust
MPH
rain 1hr
in
rain 24hr
in
rain mn
in
humidity
%
barometer
mb
20260904093007 77 150 0.0 3.0 0.00 0.00 0.00 46 1018.1
20260904091502 77 161 0.0 3.0 0.00 0.00 0.00 47 1018.4
20260904090058 76 170 0.0 4.0 0.00 0.00 0.00 46 1018.6
20260904084555 75 155 0.0 6.0 0.00 0.00 0.00 49 1018.6
20260904083050 73 140 0.0 4.0 0.00 0.00 0.00 49 1018.8
20260904081545 73 134 0.0 3.0 0.00 0.00 0.00 52 1019.1
20260904080042 71 159 0.0 3.0 0.00 0.00 0.00 53 1019.2
20260904074537 70 153 0.0 5.0 0.00 0.00 0.00 54 1019.3
20260904073033 69 136 0.0 0.0 0.00 0.00 0.00 55 1019.5
20260904071529 68 136 0.0 3.0 0.00 0.00 0.00 58 1019.8
20260904070025 67 133 0.0 2.0 0.00 0.00 0.00 60 1020.1
20260904064520 66 58 0.0 3.0 0.00 0.00 0.00 59 1020.3
20260904063023 65 94 0.0 0.0 0.00 0.00 0.00 61 1020.3
20260904061514 63 122 0.0 0.0 0.00 0.00 0.00 65 1020.4
20260904060011 64 122 0.0 3.0 0.00 0.00 0.00 61 1020.4
20260904054504 63 89 0.0 4.0 0.00 0.00 0.00 63 1020.4
20260904053100 62 103 0.0 0.0 0.00 0.00 0.00 63 1020.5
20260904051606 62 103 0.0 3.0 0.00 0.00 0.00 62 1020.4
20260904050059 62 94 0.0 0.0 0.00 0.00 0.00 63 1020.4
20260904044556 62 16 0.0 1.0 0.00 0.00 0.00 63 1020.4
20260904043056 62 355 0.0 2.0 0.00 0.00 0.00 63 1020.4
20260904041553 61 350 0.0 4.0 0.00 0.00 0.00 66 1020.3
20260904034553 62 5 0.0 0.0 0.00 0.00 0.00 63 1020.4
20260904033049 61 5 0.0 0.0 0.00 0.00 0.00 64 1020.4
20260904031548 61 5 0.0 0.0 0.00 0.00 0.00 64 1020.3
20260904030046 62 5 0.0 0.0 0.00 0.00 0.00 63 1020.5
20260904024549 63 5 0.0 0.0 0.00 0.00 0.00 62 1020.5
20260904023055 63 5 0.0 0.0 0.00 0.00 0.00 61 1020.6
20260904021543 64 5 0.0 0.0 0.00 0.00 0.00 59 1020.6
20260904020042 64 5 0.0 0.0 0.00 0.00 0.00 59 1020.6
20260904014556 64 5 0.0 0.0 0.00 0.00 0.00 58 1020.5
20260904013045 63 5 0.0 0.0 0.00 0.00 0.00 60 1020.6
20260904011540 64 5 0.0 0.0 0.00 0.00 0.00 58 1020.5
20260904010042 65 5 0.0 0.0 0.00 0.00 0.00 56 1020.5
20260904004535 65 5 0.0 0.0 0.00 0.00 0.00 55 1020.6
20260904003036 64 5 0.0 0.0 0.00 0.00 0.00 57 1020.7
20260904001535 65 5 0.0 0.0 0.00 0.00 0.00 56 1020.6
20260904000032 65 5 0.0 0.0 0.00 0.00 0.00 56 1020.8
20260903234530 65 5 0.0 0.0 0.00 0.00 0.00 55 1020.9
20260903233030 67 336 0.0 0.0 0.00 0.00 0.00 52 1020.8
20260903231533 66 336 0.0 3.0 0.00 0.00 0.00 54 1020.6
20260903230032 66 355 0.0 0.0 0.00 0.00 0.00 55 1020.6
20260903224547 65 355 0.0 0.0 0.00 0.00 0.00 56 1020.6
20260903223027 66 355 0.0 0.0 0.00 0.00 0.00 55 1020.5
20260903221526 66 360 0.0 0.0 0.00 0.00 0.00 55 1020.4
20260903220022 67 355 0.0 0.0 0.00 0.00 0.00 53 1020.4
20260903214534 67 355 0.0 0.0 0.00 0.00 0.00 54 1020.3
20260903213023 69 355 0.0 0.0 0.00 0.00 0.00 51 1020.1
20260903211519 68 355 0.0 0.0 0.00 0.00 0.00 52 1020.0
20260903210018 70 355 0.0 0.0 0.00 0.00 0.00 48 1019.9
20260903204517 70 355 0.0 0.0 0.00 0.00 0.00 49 1019.8
20260903203017 70 355 0.0 0.0 0.00 0.00 0.00 47 1019.7
20260903201516 71 355 0.0 1.0 0.00 0.00 0.00 47 1019.6
20260903200016 73 343 0.0 0.0 0.00 0.00 0.00 44 1019.4
20260903194618 73 300 0.0 8.0 0.00 0.00 0.00 41 1019.2
20260903193015 73 307 0.0 3.0 0.00 0.00 0.00 42 1019.0
20260903191515 73 333 0.0 4.0 0.00 0.00 0.00 44 1018.9
20260903190013 73 279 0.0 5.0 0.00 0.00 0.00 43 1018.7
20260903184513 74 360 0.0 3.0 0.00 0.00 0.00 43 1018.4
20260903183012 74 335 0.0 0.0 0.00 0.00 0.00 44 1018.2
20260903181512 74 234 0.0 0.0 0.00 0.00 0.00 43 1017.9
20260903180012 75 227 0.0 4.0 0.00 0.00 0.00 40 1017.8
20260903174511 76 232 0.0 2.0 0.00 0.00 0.00 41 1017.7
20260903173010 77 267 0.0 5.0 0.00 0.00 0.00 39 1017.6
20260903171510 78 186 1.0 10.0 0.00 0.00 0.00 38 1017.6
20260903170010 79 190 1.0 7.0 0.00 0.00 0.00 37 1017.5
20260903164509 79 194 0.0 7.0 0.00 0.00 0.00 36 1017.3
20260903163009 80 213 1.0 6.0 0.00 0.00 0.00 37 1017.2
20260903161511 81 198 2.0 9.0 0.00 0.00 0.00 36 1017.1
20260903160012 81 165 2.0 8.0 0.00 0.00 0.00 37 1017.1
20260903154508 82 188 4.0 11.0 0.00 0.00 0.00 37 1017.1
20260903153013 82 173 4.0 10.0 0.00 0.00 0.00 37 1017.1
20260903151507 83 194 4.0 13.0 0.00 0.00 0.00 38 1017.1
20260903150007 83 182 3.0 11.0 0.00 0.00 0.00 38 1016.9
20260903144506 83 167 4.0 9.0 0.00 0.00 0.00 38 1016.8
20260903143005 84 224 3.0 12.0 0.00 0.00 0.00 38 1016.8
20260903141504 83 180 4.0 9.0 0.00 0.00 0.00 38 1016.8
20260903140002 84 194 4.0 9.0 0.00 0.00 0.00 39 1017.1
20260903134601 84 183 2.0 8.0 0.00 0.00 0.00 37 1017.4
20260903133059 84 196 1.0 9.0 0.00 0.00 0.00 37 1017.5
20260903131557 84 209 0.0 8.0 0.00 0.00 0.00 40 1017.5
20260903130053 83 169 1.0 5.0 0.00 0.00 0.00 38 1017.7
20260903124550 82 205 1.0 8.0 0.00 0.00 0.00 40 1018.0
20260903123049 82 224 1.0 6.0 0.00 0.00 0.00 43 1018.1
20260903121547 82 149 2.0 6.0 0.00 0.00 0.00 42 1018.3
20260903120047 80 259 0.0 6.0 0.00 0.00 0.00 43 1018.5
20260903114547 81 254 0.0 5.0 0.00 0.00 0.00 44 1018.5
20260903113043 81 169 1.0 7.0 0.00 0.00 0.00 43 1018.8
20260903111543 80 196 0.0 5.0 0.00 0.00 0.00 43 1018.9
20260903110047 80 182 0.0 5.0 0.00 0.00 0.00 43 1018.9
20260903104543 79 232 0.0 3.0 0.00 0.00 0.00 44 1019.2
20260903103038 77 213 0.0 4.0 0.00 0.00 0.00 46 1019.4
20260903101538 77 167 0.0 5.0 0.00 0.00 0.00 48 1019.4
20260903100028 76 186 0.0 5.0 0.00 0.00 0.00 48 1019.9
20260903094524 75 187 0.0 5.0 0.00 0.00 0.00 46 1020.0